Content
SEND FEEDBACK

Daily
Averages
Monthly
Summary
United States of America

LANESBORO, MINNESOTA


Home > North America > United States > Minnesota
Elevation: 830 feet     Latitude: 43 43N     Longitude: 091 58W

WEATHER
 
SELECT A DAY
Number of Records: 293,223;   Date Range: 6/13/02 - 9/18/14
 
SHARE

PRINT THIS DATA

[ ← Previous Day ]
WEATHER ALMANAC - JANUARY 23, 2013
[ Next Day → ]
[ °C ]   °F
Weather ElementAverageHighLow
Temperature9.8 °F17.2 °F (2:30 pm)-2.7 °F (11:49 pm)
Dewpoint2.8 °F11.3 °F (10:50 am)-13 °F (11:49 pm)
Humidity73.6 %89 % (6:49 am)58 % (7:30 pm)
Barometer30.20 in30.48 in (11:49 pm)30.10 in (1:30 pm)
Wind Speed12.7 mph24.2 mph (4:10 pm)
Wind Gust33.4 mph (4:29 pm)
Weather ElementAverage
Visibility7.1 mi
Wind DirectionWNW (280.7 °)

Weather ElementTotal
Precipitation---
Heating Degree Days57.8 (Base 65)
Averaged from 69 records on January 23, 2013
WEATHER CONDITIONS BREAKOUT
WIND DIRECTION BREAKOUT
WEATHER BY HOUR - JANUARY 23, 2013
[ °C ]   °F
Local TimeTemperatureDewpointHumidityBarometerVisibilityWind DirectionWind SpeedGust SpeedPrecipitationEventsConditions
12:30 AM7.7 °F-0.8 °F68 %30.20 in10.0 miSW (220°)6.9 mphOvercast
12:50 AM8.2 °F-0.2 °F68 %30.20 in10.0 miSW (220°)8.1 mphOvercast
1:10 AM8.4 °F0.0 °F68 %30.19 in10.0 miSW (220°)6.9 mphOvercast
1:29 AM8.6 °F0.5 °F70 %30.19 in10.0 miSW (230°)5.8 mphOvercast
1:50 AM9.1 °F0.7 °F69 %30.19 in10.0 miSW (220°)5.8 mphOvercast
2:09 AM9.3 °F1.0 °F69 %30.19 in10.0 miSW (220°)6.9 mphOvercast
2:29 AM9.5 °F1.6 °F70 %30.19 in10.0 miSW (220°)5.8 mphOvercast
2:49 AM9.9 °F2.3 °F71 %30.19 in10.0 miSW (220°)4.6 mphOvercast
3:10 AM9.9 °F2.8 °F73 %30.18 in10.0 miSW (220°)5.8 mphOvercast
3:29 AM10.0 °F3.2 °F74 %30.16 in10.0 miSSW (210°)6.9 mphOvercast
3:50 AM10.2 °F4.1 °F76 %30.15 in10.0 miSSW (210°)6.9 mphOvercast
4:09 AM10.2 °F5.2 °F80 %30.15 in3.0 miSSW (200°)6.9 mphSnowLight Snow
4:30 AM10.0 °F6.1 °F84 %30.14 in3.0 miSSW (200°)5.8 mphSnowLight Snow
4:49 AM10.0 °F6.6 °F86 %30.14 in4.0 miSSW (200°)5.8 mphSnowLight Snow
5:09 AM10.0 °F6.6 °F86 %30.14 in2.5 miSSW (200°)4.6 mphSnowLight Snow
5:30 AM10.0 °F6.8 °F87 %30.14 in2.5 miSouth (190°)4.6 mphSnowLight Snow
5:50 AM10.0 °F6.8 °F87 %30.13 in3.0 miSouth (190°)5.8 mphSnowLight Snow
6:09 AM10.0 °F7.2 °F88 %30.13 in2.5 miSSW (200°)5.8 mphSnowLight Snow
6:49 AM10.2 °F7.5 °F89 %30.12 in2.5 miSSW (200°)5.8 mphSnowLight Snow
7:09 AM10.2 °F7.5 °F89 %30.12 in4.0 miSSW (200°)5.8 mphSnowLight Snow
7:30 AM10.4 °F7.5 °F88 %30.11 in2.5 miSSW (200°)5.8 mphSnowLight Snow
7:50 AM10.6 °F7.7 °F88 %30.11 in4.0 miSSW (200°)4.6 mphSnowLight Snow
8:10 AM10.8 °F7.7 °F87 %30.11 in5.0 miSSW (210°)5.8 mphSnowLight Snow
8:29 AM11.1 °F7.9 °F87 %30.11 in4.0 miSW (220°)5.8 mphSnowLight Snow
8:48 AM11.7 °F8.4 °F87 %30.12 in4.0 miSW (220°)5.8 mphSnowLight Snow
9:10 AM12.7 °F9.0 °F85 %30.12 in3.0 miSW (230°)6.9 mphSnowLight Snow
9:30 AM13.6 °F9.5 °F84 %30.12 in4.0 miWSW (250°)8.1 mphSnowLight Snow
9:49 AM14.5 °F10.0 °F82 %30.12 in3.0 miWSW (250°)11.5 mph16.1 mphSnowLight Snow
10:10 AM15.1 °F10.2 °F81 %30.12 in5.0 miWest (260°)11.5 mphSnowLight Snow
10:29 AM16.0 °F10.9 °F81 %30.13 in10.0 miWest (270°)11.5 mphSnowLight Snow
10:50 AM15.6 °F11.3 °F83 %30.13 in4.0 miWest (270°)9.2 mphSnowLight Snow
11:10 AM16.0 °F11.1 °F81 %30.13 in4.0 miWNW (300°)13.8 mph18.4 mphSnowLight Snow
11:30 AM15.6 °F10.8 °F81 %30.13 in4.0 miWNW (300°)16.1 mphSnowLight Snow
11:50 AM15.6 °F10.6 °F80 %30.12 in2.5 miNW (310°)17.3 mphSnowLight Snow
12:10 PM16.2 °F10.6 °F79 %30.11 in4.0 miNW (310°)16.1 mph21.9 mphSnowLight Snow
12:30 PM15.3 °F9.9 °F79 %30.11 in7.0 miNW (310°)15.0 mph20.7 mphSnowLight Snow
12:49 PM16.0 °F10.2 °F78 %30.11 in4.0 miNW (310°)17.3 mph23.0 mphSnowLight Snow
1:10 PM16.3 °F9.9 °F76 %30.11 in10.0 miWNW (300°)18.4 mph24.2 mphSnowLight Snow
1:30 PM16.0 °F8.8 °F73 %30.10 in10.0 miNW (310°)17.3 mph21.9 mphMostly Cloudy
1:49 PM15.8 °F9.5 °F76 %30.10 in7.0 miWNW (300°)17.3 mph25.3 mphSnowLight Snow
2:10 PM16.5 °F10.0 °F76 %30.11 in4.0 miWNW (300°)19.6 mph24.2 mphSnowLight Snow
2:30 PM17.2 °F9.1 °F71 %30.11 in7.0 miNW (310°)23.0 mph27.6 mphOvercast
2:50 PM16.9 °F9.1 °F72 %30.13 in7.0 miWNW (300°)23.0 mph27.6 mphOvercast
3:09 PM15.8 °F9.1 °F75 %30.14 in4.0 miWNW (300°)21.9 mph29.9 mphSnowLight Snow
3:30 PM16.2 °F8.8 °F73 %30.14 in7.0 miNW (320°)18.4 mph31.1 mphSnowLight Snow
3:50 PM15.8 °F8.2 °F72 %30.15 in10.0 miNW (310°)20.7 mph29.9 mphMostly Cloudy
4:10 PM14.9 °F6.1 °F68 %30.16 in7.0 miNW (320°)24.2 mph31.1 mphOvercast
4:29 PM13.6 °F4.5 °F67 %30.17 in7.0 miNW (320°)24.2 mph33.4 mphOvercast
4:49 PM12.6 °F3.9 °F68 %30.19 in10.0 miNW (320°)24.2 mph29.9 mphMostly Cloudy
5:10 PM11.7 °F4.5 °F73 %30.20 in5.0 miNW (320°)20.7 mph27.6 mphSnowLight Snow
5:29 PM10.8 °F1.0 °F65 %30.22 in7.0 miNNW (340°)24.2 mph32.2 mphMostly Cloudy
5:49 PM9.5 °F0.9 °F68 %30.24 in10.0 miNNW (340°)19.6 mph27.6 mphScattered Clouds
6:10 PM8.2 °F-0.9 °F66 %30.26 in10.0 miNNW (340°)18.4 mph29.9 mphScattered Clouds
6:30 PM7.2 °F-4.0 °F60 %30.29 in10.0 miNNW (340°)18.4 mph29.9 mphScattered Clouds
6:50 PM6.6 °F-4.0 °F62 %30.29 in10.0 miNNW (340°)19.6 mph27.6 mphClear
7:09 PM5.7 °F-1.5 °F72 %30.31 in7.0 miNorth (360°)23.0 mph29.9 mphMostly Cloudy
7:30 PM3.9 °F-7.8 °F58 %30.33 in10.0 miNorth (360°)17.3 mph31.1 mphScattered Clouds
7:49 PM3.0 °F-8.5 °F59 %30.34 in10.0 miNorth (360°)17.3 mph26.5 mphClear
8:09 PM2.3 °F-9.0 °F59 %30.36 in10.0 miNorth (350°)19.6 mph25.3 mphClear
8:28 PM1.8 °F-9.2 °F60 %30.37 in10.0 miNorth (360°)13.8 mph23.0 mphClear
8:50 PM1.2 °F-9.4 °F61 %30.38 in10.0 miNorth (360°)13.8 mph23.0 mphClear
9:09 PM0.7 °F-10.5 °F59 %30.40 in10.0 miNorth (360°)15.0 mph25.3 mphClear
9:30 PM0.1 °F-11.2 °F59 %30.41 in10.0 miNorth (360°)11.5 mph23.0 mphClear
9:50 PM-0.4 °F-11.4 °F60 %30.41 in10.0 miNorth (360°)13.8 mphClear
10:10 PM-1.3 °F-11.7 °F61 %30.43 in10.0 miNorth (360°)8.1 mphClear
10:30 PM-1.5 °F-11.9 °F61 %30.44 in10.0 miNorth (360°)12.7 mph18.4 mphClear
10:50 PM-1.5 °F-12.3 °F60 %30.45 in10.0 miNorth (360°)12.7 mph19.6 mphClear
11:09 PM-2.2 °F-12.3 °F62 %30.46 in10.0 miNorth (360°)9.2 mphClear
11:49 PM-2.7 °F-13.0 °F62 %30.48 in10.0 miNorth (360°)10.4 mphClear
Hourly data recorded from KFKA, located miles away from Lanesboro, Minnesota







STORIES FROM OUR PARTNERS